SL-16 DEB, 22359

Orbit data source: Space-Track

SL-16 DEB, 22359 is space debris in LEO originally from a launch on Fri, 25 Dec 1992 UTC launched from the Tyuratam Missile And Space Complex (TTMTR). Debris objects in space refer to the collection of defunct objects orbiting the Earth. Examples of debris include non-operational satellites, rocket bodies, and fragments generated from explosions, collisions, or faulty payload assembly.

Loading next visibility...
Identifier
22359, 1992-093AY
Orbit
LEO
Country
Flag of CISCIS
Related business
Manufacturer
Unknown
Mission
Spacecraft
Bus & Motor
Unknown
Mass
Unknown
Launch date (UTC)
1992-12-25 (33 years ago)
Launch vehicle
Unknown
Launch site
Tyuratam Missile And Space Complex (TTMTR)
Object type
Payload
Rocket body
Debris
Shape & HBR
Unknown shape, 0.1 m
Radar Cross Section
Small (<0.1 m²)

Expand to show TLE details & history
Last TLE update: 17 hours ago

TLE from 17 hours ago
0 SL-16 DEB
1 22359U 92093AY  25296.50954594  .00002452  00000-0  16301-2 0  9995
2 22359  70.7398  76.6101 0156620 106.7917 326.8210 13.96476741658019
Epoch: 2025-10-23T12:13Z
TLE epoch observation values (Epoch: 2025-10-23T12:13:44.769Z)
Latitude
64.38212°
Longitude
-92.53943°
Altitude
821.606 km
Speed
7.497 km/s
True Right ascension
08h 12m 15s
True Declination
64° 14' 56"
Sunlit
Object was in daylight at epoch
Visualization orbit readout
Latitude
Unknown
Longitude
Unknown
Altitude
Unknown
Speed
Unknown
Apparent Right ascension
Unknown
Apparent Declination
Unknown
Sunlit
N/A
Visualization observer readout
Local Sidereal Time
00:11:25
Azimuth
Unknown
Elevation
Unknown
Doppler factor
Unknown
Orbital elements
Apogee altitude
1,018.042 km
Perigee altitude
789.936 km
Semi-major axis
7,282.126 km
Eccentricity
0.01566
Inclination
70.7398°
RAAN
76.6101°
Arg. of periapsis
106.7917°
True anomaly
325.82252°
Mean anomaly
326.821°
Eccentric anomaly
326.32341°
Mean motion
3.49266 °/min
Orbital period
103.07 mins
BSTAR
0.0016301
Loading maneuver chart data...
Computing Atmospheric mass density...
Loading historical data...
Loading historical data...
Loading historical data...
Loading historical data...
Loading historical data...
Loading historical data...
Loading historical data...

Documentation

Showing up to 5 results
|